カタログに戻る

STARLINK-32676

運用中通信VLEO
NORAD 62426·PAYLOAD·🇺🇸 United States

打ち上げ Dec 23, 2024 から Cape Canaveral Space Force Station

Loading…

次のパス (今後24時間)

TLE

最新Source: CelesTrak SupGP

元期: Sep 14, 2026, 22:38 UTC

1 62426C 24249T   26257.94354167 -.00015097  00000+0 -54686-3 0  2574
2 62426  43.0018 325.7611 0001429 272.5167  23.2709 15.27583799    19

AllMySatでSTARLINK-32676をリアルタイム追跡

Download on the App Store